Rbgn^[z[y[W
メイン
   新天体発見情報
     Comet P/2011 UA134 = 2024 T4 (Spacewatch-PANSTARRS)
投稿するにはまず登録を

スレッド表示 | 新しいものから 前のトピック | 次のトピック | 下へ
投稿者 スレッド
佐藤裕久
投稿日時: 2024-10-29 12:02
モデレータ
登録日: 2005-6-12
居住地: 日本
投稿: 2626
オンライン
Comet P/2011 UA134 = 2024 T4 (Spacewatch-PANSTARRS)

M. Rudenko (小惑星センター)の通報によると、P/2011 UA134 (IAUC 9239参照)が、10月5日、Mt Lemmon
の1.5-m 反射望遠鏡鏡 (観測者:J. K. Hogan)と、10月9日と10日、HaleakalaのPan-STARRS2 1.8-m 
Ritchey-Chretien反射望遠鏡で得られた偶発的な精測で、明らかに小惑星状天体と思われる天体が偶然
検出された(MPEC 2024-U43)。
NK 2207 (= ICQ's Comet Handbook 2024)の中野主一氏の予報に対する修正値は、Delta(T) = 
-1.29 daysであった。
MPC 79022のG. V. Williamsの予報に対する修正値は、Delta(T) = -1.35 daysであった。
彗星年表 2022の佐藤裕久の参考軌道要素の修正値は、Delta(T) = -1.99 daysであった。

検出位置は次のとおり、

     2024 UT             R.A. (2000) Decl.       Mag.   Observer
     Oct.  5.30759    1 58 40.89   + 6 22 44.3   21.7   Hogan
           5.31278    1 58 40.69   + 6 22 44.5   21.0     "
           5.31797    1 58 40.50   + 6 22 44.8   20.8     "
           5.32316    1 58 40.33   + 6 22 45.5   22.5     "
           9.47124    1 56 09.38   + 6 28 35.4   21.8   Pan-STARRS2
           9.49434    1 56 08.44   + 6 28 37.1   21.5     "
           9.50592    1 56 07.95   + 6 28 38.1   21.6     "
          10.45581    1 55 30.91   + 6 29 59.9   21.7     "
          10.46795    1 55 30.40   + 6 30 00.6   21.4     "
          10.48195    1 55 29.80   + 6 30 02.2   21.4     "
          10.51364    1 55 28.48   + 6 30 04.1   21.7     "

MPCの連結軌道要素、位置推算表は次のとおり、

Orbital elements:
    P/2011 UA134 (Spacewatch-PANSTARRS)                                         
Epoch 2024 Oct. 17.0 TT = JDT 2460600.5                                         
T 2025 Feb. 15.40950 TT                                 Rudenko                 
q   2.0751565            (2000.0)            P               Q                  
n   0.07410897     Peri.   32.42911     +0.30121901     -0.94630026             
a   5.6133511      Node    40.38530     +0.83166486     +0.20048680             
e   0.6303177      Incl.   10.43937     +0.46647687     +0.25361558             
P  13.3                                                                         
From 141 observations 2011 Oct. 24-2024 Oct. 10, mean residual 0".7.            
                                                                                
Ephemeris:
Date    TT    R. A. (2000) Decl.     Delta      r    Elong.  Phase   m1
2024 09 23    02 03 58.0 +06 04 37   1.5595  2.4719   148.6    12.2  22.4
...
2024 10 08    01 57 05.1 +06 26 32   1.4245  2.4023   164.5     6.4  22.1
...
2024 10 16    01 51 38.2 +06 38 21   1.3746  2.3670   172.9     3.0  21.9
...
2024 10 22    01 47 03.9 +06 48 38   1.3479  2.3415   175.8     1.8  21.8
2024 10 23    01 46 16.8 +06 50 31   1.3443  2.3374   175.3     2.0  21.8
2024 10 24    01 45 29.6 +06 52 27   1.3410  2.3332   174.7     2.3  21.8
...
2024 10 30    01 40 45.6 +07 05 34   1.3267  2.3089   168.8     4.8  21.7
...
2024 11 07    01 34 47.8 +07 27 54   1.3219  2.2780   159.8     8.6  21.7
...
2024 11 22    01 26 36.2 +08 29 24   1.3528  2.2248   143.3    15.4  21.6

(MPEC 2024-U43、CBET 5464、oaa-comet 7102)

スレッド表示 | 新しいものから 前のトピック | 次のトピック | トップ

投稿するにはまず登録を
 
© 1999 Tsutomu Seki.